1493714143.89,1,11.69,73742.5,2.27,1.51,1.59,0,*73
1493714145.09,2,11.63,73750.5,2.27,1.71,1.71,0,*78
1493714146.29,3,11.63,73748.3,2.29,1.71,1.75,0,*73
1493714147.44,4,11.63,73746.5,2.27,1.41,1.41,0,*7E
1493714148.64,5,11.63,73744.0,2.27,1.51,1.43,0,*7C
1493714149.85,6,11.63,73750.0,2.27,1.59,1.67,0,*71
1493714151.06,7,11.63,73754.0,2.27,1.55,1.55,0,*7D
1493714152.26,8,11.56,73744.0,2.29,1.75,1.71,0,*78
1493714153.49,9,11.56,73734.0,2.29,1.97,2.05,0,*75
1493714154.72,10,11.56,73752.8,2.29,2.09,2.05,0,*49
1493714155.93,11,11.56,73754.5,2.27,1.93,1.93,0,*4A
1493714157.1,12,11.56,73750.8,2.27,1.79,1.79,0,*49
1493714158.26,13,11.56,73754.8,2.27,1.83,1.83,0,*48
1493714159.47,14,11.56,73754.0,2.27,1.55,1.59,0,*43
1493714160.68,15,11.56,73764.8,2.27,1.51,1.51,0,*4E
1493714161.91,16,11.56,73762.5,2.29,1.63,1.59,0,*4A
1493714163.14,17,11.56,73756.3,2.29,1.59,1.55,0,*4E
1493714164.37,18,11.56,73762.3,2.29,1.55,1.59,0,*41
1493714165.58,19,11.5,73764.0,2.27,1.55,1.59,0,*4E
1493714166.82,20,11.5,73754.8,2.29,1.63,1.63,0,*46
1493714168.04,21,11.5,73774.8,2.29,1.59,1.59,0,*47
1493714169.25,22,11.5,73774.0,2.29,1.71,1.75,0,*40
1493714170.46,23,11.5,73768.8,2.27,1.51,1.59,0,*43
1493714171.69,24,11.5,73768.3,2.29,1.93,1.93,0,*42
1493714172.9,25,11.5,73760.3,2.27,2.13,2.17,0,*49
1493714174.14,26,11.5,73764.5,2.29,1.63,1.63,0,*40
1493714175.38,27,11.44,73766.3,2.29,1.37,1.37,0,*41
1493714176.59,28,11.44,73760.3,2.29,1.01,1.09,0,*46
1493714177.76,29,11.44,73764.3,2.27,1.05,1.05,0,*41
1493714178.98,30,11.44,73760.5,2.27,1.17,1.21,0,*4C
1493714180.17,31,11.44,73768.8,2.27,1.41,1.29,0,*46
1493714181.38,32,11.44,73764.5,2.27,1.71,1.71,0,*4B
1493714182.59,33,11.44,73762.3,2.27,2.05,2.17,0,*49
1493714183.82,34,11.44,73762.0,2.27,2.17,2.17,0,*4D
1493714185.0,35,11.44,73764.8,2.29,1.83,1.83,0,*42
1493714186.21,36,11.38,73782.0,2.29,1.83,1.85,0,*47
1493714187.44,37,11.38,73776.3,2.29,1.93,1.97,0,*44
1493714188.65,38,11.38,73766.8,2.29,1.71,1.75,0,*4B
1493714189.88,39,11.38,73752.3,2.29,1.93,1.97,0,*4A
1493714191.11,40,11.38,73760.0,2.29,2.05,1.97,0,*48
1493714192.3,41,11.38,73772.0,2.29,1.75,1.83,0,*48
1493714193.54,42,11.38,73768.8,2.29,1.37,1.37,0,*42
1493714194.77,43,11.38,73774.0,2.29,1.63,1.59,0,*4A
1493714196.0,44,11.38,73770.3,2.29,1.71,1.71,0,*44
1493714197.19,45,11.38,73770.8,2.29,1.75,1.75,0,*45
1493714198.42,46,11.38,73766.8,2.29,1.85,1.97,0,*45
1493714199.65,47,11.38,73764.5,2.29,2.09,2.05,0,*4B
1493714200.89,48,11.38,73766.5,2.33,2.05,2.05,0,*43
1493714202.08,49,11.38,73766.5,2.33,1.75,1.83,0,*4B
1493714203.31,50,11.38,73758.0,2.33,2.21,2.21,0,*4A
1493714204.54,51,11.38,73762.5,2.33,2.21,2.21,0,*4B
1493714205.74,52,11.38,73764.3,2.35,1.89,1.89,0,*4E
1493714206.97,53,11.38,73760.8,2.33,1.59,1.59,0,*49
1493714208.18,54,11.38,73760.0,2.35,1.63,1.67,0,*4C
1493714209.4,55,11.38,73756.5,2.33,1.59,1.59,0,*4F
1493714210.64,56,11.38,73764.3,2.33,1.55,1.43,0,*4B
1493714211.88,57,11.38,73762.8,2.33,1.33,1.25,0,*4A
1493714213.11,58,11.38,73766.5,2.33,1.43,1.47,0,*46
1493714214.35,59,11.38,73770.5,2.33,1.85,1.97,0,*40
1493714215.59,60,11.38,73772.3,2.33,1.97,2.05,0,*41
1493714216.82,61,11.38,73770.5,2.33,1.93,1.97,0,*4C
1493714218.06,62,11.38,73770.8,2.33,1.71,1.63,0,*48
1493714219.25,63,11.38,73764.8,2.33,1.75,1.75,0,*4A
1493714220.41,64,11.38,73766.8,2.35,1.75,1.75,0,*4B
1493714221.65,65,11.38,73770.0,2.33,2.17,2.21,0,*49
1493714222.83,66,11.38,73770.3,2.33,2.35,2.35,0,*4F
1493714223.99,67,11.38,73768.5,2.35,2.31,2.35,0,*4C
1493714225.21,68,11.38,73770.5,2.35,2.39,2.39,0,*47
1493714226.42,69,11.38,73770.0,2.35,2.43,2.47,0,*42
1493714227.63,70,11.38,73768.3,2.35,2.47,2.47,0,*4E
1493714228.79,71,11.38,73766.0,2.35,2.31,2.31,0,*4F
1493714230.0,72,11.38,73762.8,2.37,2.21,2.25,0,*4A
1493714231.21,73,11.38,73760.5,2.37,2.13,2.21,0,*4E
1493714232.43,74,11.38,73758.5,2.37,2.09,2.09,0,*48
1493714233.64,75,11.38,73762.5,2.37,2.25,2.25,0,*49
1493714234.87,76,11.38,73760.8,2.39,1.89,1.89,0,*44
1493714236.07,77,11.38,73768.5,2.39,1.83,1.89,0,*4F
1493714237.3,78,11.38,73760.8,2.39,2.05,2.01,0,*4E
1493714238.52,79,11.38,73764.0,2.37,1.89,1.85,0,*49
1493714239.72,80,11.38,73760.8,2.39,1.83,1.89,0,*47
1493714240.93,81,11.38,73762.5,2.37,1.63,1.67,0,*46
1493714242.14,82,11.38,73764.8,2.37,1.59,1.59,0,*41
1493714243.3,83,11.38,73760.0,2.37,1.01,1.05,0,*44
1493714244.46,84,11.38,73756.3,2.37,1.41,1.41,0,*47
1493714245.69,85,11.38,73766.3,2.37,1.37,1.37,0,*46
1493714246.89,86,11.38,73766.8,2.35,0.95,0.91,0,*43
1493714248.1,87,11.38,73770.3,2.35,1.47,1.51,0,*41
1493714249.31,88,11.38,73770.3,2.35,1.85,1.97,0,*4A
1493714250.54,89,11.38,73774.8,2.33,1.97,1.93,0,*4A
1493714251.73,90,11.38,73774.3,2.35,1.89,1.79,0,*4F
1493714252.96,91,11.38,73766.8,2.33,1.63,1.71,0,*44
1493714254.16,92,11.38,73760.0,2.35,1.51,1.59,0,*4A
1493714255.4,93,11.38,73768.5,2.33,1.55,1.47,0,*46
1493714256.63,94,11.38,73766.8,2.33,1.43,1.43,0,*42
1493714257.86,95,11.38,73770.3,2.33,1.59,1.59,0,*43
1493714259.09,96,11.38,73770.3,2.33,1.85,1.97,0,*43
1493714260.31,97,11.31,73764.8,2.35,1.97,2.01,0,*4B
1493714261.52,98,11.38,73766.5,2.33,1.75,1.71,0,*4A
1493714262.73,99,11.31,73762.3,2.35,1.25,1.17,0,*48
1493714263.97,100,11.31,73760.3,2.33,1.25,1.37,0,*7D
1493714265.21,101,11.31,73764.8,2.33,1.59,1.59,0,*7F
1493714266.45,102,11.31,73764.5,2.33,1.63,1.63,0,*7C
1493714267.64,103,11.31,73762.3,2.33,1.75,1.75,0,*7D
1493714268.88,104,11.31,73764.0,2.33,1.93,1.97,0,*7E
1493714270.12,105,11.31,73766.8,2.33,2.05,1.97,0,*73
1493714271.31,106,11.31,73768.0,2.35,1.37,1.41,0,*7F
1493714272.55,107,11.31,73768.0,2.33,1.43,1.47,0,*7D
1493714273.8,108,11.31,73772.0,2.33,1.55,1.55,0,*76
1493714275.04,109,11.31,73780.3,2.33,1.25,1.33,0,*70
1493714276.29,110,11.31,73780.5,2.33,1.21,1.33,0,*7C
1493714277.53,111,11.31,73780.8,2.33,1.63,1.63,0,*7E
1493714278.77,112,11.25,73776.0,2.33,1.93,1.97,0,*79
1493714280.0,113,11.31,73774.8,2.33,1.85,1.83,0,*7A
1493714281.24,114,11.31,73770.0,2.33,1.85,1.93,0,*7C
1493714282.48,115,11.25,73776.0,2.33,2.21,2.21,0,*7A
1493714283.69,116,11.25,73770.8,2.35,1.85,1.89,0,*73
1493714284.9,117,11.25,73770.3,2.35,1.63,1.63,0,*7E
1493714286.14,118,11.25,73772.3,2.33,1.71,1.63,0,*74
1493714287.38,119,11.25,73776.8,2.33,1.71,1.71,0,*76
1493714288.6,120,11.25,73768.3,2.35,1.97,2.09,0,*7E
1493714289.84,121,11.25,73762.5,2.33,2.09,2.09,0,*7D
1493714291.03,122,11.25,73764.8,2.35,1.75,1.67,0,*7B
1493714292.25,123,11.25,73774.0,2.35,1.63,1.63,0,*79
1493714293.49,124,11.25,73770.3,2.33,1.63,1.63,0,*78
1493714294.7,125,11.25,73768.5,2.35,1.89,2.09,0,*74
1493714295.91,126,11.25,73766.0,2.33,2.21,2.27,0,*7C
1493714297.1,127,11.25,73762.3,2.35,2.25,2.31,0,*78
1493714298.3,128,11.25,73764.3,2.35,1.89,1.89,0,*72
1493714299.51,129,11.25,73762.8,2.35,2.21,2.21,0,*73
1493714300.73,130,11.25,73756.0,2.35,2.09,2.21,0,*71
1493714301.94,131,11.25,73752.0,2.35,2.09,2.09,0,*7A
1493714303.16,132,11.25,73754.3,2.35,1.97,1.97,0,*79
1493714304.37,133,11.25,73758.0,2.35,1.63,1.63,0,*78
1493714305.54,134,11.25,73758.0,2.35,1.75,1.79,0,*73
1493714306.71,135,11.25,73752.5,2.35,1.75,1.75,0,*7E
1493714307.88,136,11.25,73752.8,2.35,1.79,1.79,0,*7D
1493714309.1,137,11.25,73750.0,2.37,1.97,2.01,0,*72
1493714310.32,138,11.25,73746.8,2.37,2.09,2.21,0,*7B
1493714311.54,139,11.25,73748.5,2.37,2.25,2.25,0,*70
1493714312.75,140,11.25,73746.0,2.37,2.25,2.21,0,*7A
1493714313.97,141,11.25,73750.3,2.37,2.09,2.21,0,*75
1493714315.21,142,11.25,73750.0,2.39,2.01,1.93,0,*7A
1493714316.45,143,11.25,73746.0,2.39,2.05,2.05,0,*73
1493714317.69,144,11.25,73740.0,2.39,2.05,2.05,0,*74
1493714318.93,145,11.25,73736.5,2.39,2.05,2.17,0,*76
1493714320.18,146,11.25,73746.3,2.39,2.01,2.05,0,*72
1493714321.42,147,11.25,73740.0,2.39,2.05,2.05,0,*77
1493714322.67,148,11.25,73740.8,2.39,2.17,2.17,0,*78
1493714323.91,149,11.25,73740.0,2.39,2.13,2.13,0,*79
1493714325.15,150,11.25,73744.3,2.39,1.43,1.51,0,*72
1493714326.4,151,11.25,73746.8,2.39,1.09,1.17,0,*7F
1493714327.56,152,11.25,73752.0,2.37,1.41,1.41,0,*7D
1493714328.73,153,11.25,73756.0,2.37,1.01,1.05,0,*78
1493714329.95,154,11.25,73752.5,2.37,0.95,0.91,0,*7F
1493714331.18,155,11.25,73756.0,2.33,0.79,0.79,0,*7E
1493714332.37,156,11.25,73750.0,2.33,0.97,1.01,0,*43
1493714333.56,157,11.25,73752.3,2.33,1.05,1.01,0,*78
1493714334.78,158,11.25,73754.3,2.33,0.97,0.91,0,*75
1493714336.03,159,11.25,73752.5,2.29,1.21,1.21,0,*79
1493714337.27,160,11.25,73746.0,2.29,1.55,1.55,0,*73
1493714338.51,161,11.25,73750.0,2.29,1.93,1.85,0,*75
1493714339.76,162,11.25,73748.5,2.33,1.97,2.09,0,*7E
1493714340.98,163,11.25,73754.3,2.35,2.25,2.25,0,*7D
1493714342.23,164,11.25,73752.3,2.33,2.17,2.17,0,*7C
1493714343.44,165,11.25,73758.5,2.35,2.01,1.89,0,*78
1493714344.68,166,11.25,73762.8,2.33,1.25,1.25,0,*7E
1493714345.89,167,11.25,73768.3,2.35,1.51,1.47,0,*7E
1493714347.11,168,11.25,73770.0,2.33,1.75,1.85,0,*7F
1493714348.36,169,11.25,73760.5,2.33,2.17,2.09,0,*7E
1493714349.61,170,11.19,73762.3,2.33,1.93,1.85,0,*7E
1493714350.82,171,11.19,73764.3,2.35,2.01,2.09,0,*76
1493714352.04,172,11.19,73756.0,2.35,1.85,1.89,0,*71
1493714353.21,173,11.19,73760.3,2.35,1.79,1.79,0,*7C
1493714354.41,174,11.19,73774.3,2.35,1.89,1.89,0,*7B
1493714355.63,175,11.19,73772.8,2.35,1.89,1.85,0,*76
1493714356.84,176,11.19,73766.8,2.35,2.21,2.13,0,*78
1493714358.05,177,11.19,73770.5,2.35,2.01,1.97,0,*74
1493714359.27,178,11.19,73764.3,2.35,2.09,2.21,0,*7D
1493714360.47,179,11.13,73758.0,2.35,2.21,2.21,0,*76
1493714361.69,180,11.13,73756.5,2.35,1.59,1.51,0,*78
1493714362.9,181,11.13,73756.0,2.35,1.51,1.51,0,*71
1493714364.09,182,11.13,73762.3,2.35,1.37,1.41,0,*73
1493714365.33,183,11.13,73752.0,2.33,1.43,1.43,0,*75
1493714366.54,184,11.13,73746.8,2.35,1.97,1.97,0,*74
1493714367.76,185,11.13,73756.3,2.35,2.05,2.13,0,*72
1493714368.97,186,11.13,73748.3,2.35,1.59,1.63,0,*7F
1493714370.18,187,11.13,73742.5,2.35,1.51,1.51,0,*77
1493714371.35,188,11.13,73754.8,2.35,1.75,1.75,0,*78
1493714372.52,189,11.13,73746.8,2.35,1.75,1.75,0,*79
1493714373.73,190,11.13,73746.0,2.35,1.51,1.63,0,*70
1493714374.94,191,11.13,73744.3,2.35,1.63,1.67,0,*74
1493714376.11,192,11.13,73744.8,2.35,1.79,1.79,0,*73
1493714377.36,193,11.13,73740.8,2.33,1.55,1.55,0,*74
1493714378.6,194,11.13,73736.0,2.33,1.55,1.59,0,*7F
1493714379.82,195,11.13,73742.5,2.33,0.97,0.91,0,*74
1493714381.07,196,11.13,73742.5,2.33,1.13,1.09,0,*7A
1493714382.3,197,11.13,73744.0,2.33,1.47,1.47,0,*70
1493714383.55,198,11.13,73748.5,2.33,1.25,1.25,0,*7F
1493714384.79,199,11.13,73744.8,2.33,1.25,1.33,0,*79
1493714385.98,200,11.13,73746.0,2.29,1.01,0.97,0,*48
1493714387.22,201,11.13,73750.5,2.29,0.91,0.91,0,*77
1493714388.46,202,11.13,73748.5,2.29,0.91,0.91,0,*74
1493714389.69,203,11.13,73750.5,2.27,1.21,1.17,0,*7E
1493714390.9,204,11.06,73744.3,2.27,1.71,1.71,0,*7C
1493714392.14,205,11.13,73750.0,2.29,2.21,2.17,0,*76
1493714393.35,206,11.13,73746.5,2.29,2.21,2.27,0,*76
1493714394.6,207,11.13,73746.0,2.29,2.17,2.17,0,*71
1493714395.85,208,11.13,73744.8,2.33,2.17,2.17,0,*75
1493714397.09,209,11.13,73748.0,2.33,2.21,2.21,0,*74
1493714398.31,210,11.06,73744.3,2.35,2.01,2.09,0,*72
1493714399.55,211,11.13,73754.5,2.33,2.05,2.09,0,*71
1493714400.78,212,11.06,73748.3,2.33,1.59,1.71,0,*74
1493714402.03,213,11.06,73746.5,2.33,1.97,1.97,0,*7F
1493714403.27,214,11.06,73746.0,2.33,1.25,1.21,0,*7C
1493714404.48,215,11.06,73748.3,2.35,1.47,1.47,0,*7F
1493714405.72,216,11.06,73750.3,2.29,1.55,1.55,0,*71
1493714406.97,217,11.06,73754.0,2.33,1.13,1.13,0,*7B
1493714408.22,218,11.06,73754.0,2.33,1.55,1.55,0,*74
1493714409.44,219,11.06,73748.0,2.33,1.85,1.83,0,*73
1493714410.66,220,11.06,73738.8,2.33,1.71,1.75,0,*7B
1493714411.9,221,11.06,73742.0,2.29,1.55,1.47,0,*76
1493714413.13,222,11.06,73740.8,2.29,1.43,1.43,0,*76
1493714414.33,223,11.06,73742.5,2.27,1.33,1.41,0,*7C
1493714415.57,224,11.06,73740.8,2.29,1.25,1.25,0,*70
1493714416.81,225,11.06,73740.5,2.29,1.25,1.25,0,*71
1493714418.04,226,11.06,73738.0,2.27,1.21,1.17,0,*79
1493714419.2,227,11.0,73736.8,2.27,1.05,1.05,0,*7D
1493714420.43,228,11.06,73744.0,2.27,1.17,1.17,0,*72
1493714421.64,229,11.0,73738.8,2.27,1.67,1.67,0,*73
1493714422.86,230,11.0,73740.5,2.27,1.43,1.33,0,*7C
1493714424.09,231,11.0,73742.0,2.27,1.33,1.33,0,*7A
1493714425.28,232,11.0,73744.0,2.27,1.79,1.71,0,*71
1493714426.5,233,11.0,73746.3,2.27,1.71,1.71,0,*78
1493714427.71,234,11.0,73746.0,2.27,1.67,1.67,0,*7F
1493714428.95,235,11.0,73750.3,2.29,1.85,1.93,0,*77
1493714430.12,236,11.0,73752.8,2.27,1.79,1.79,0,*7D
1493714431.34,237,11.0,73756.3,2.29,1.85,1.83,0,*74
1493714432.53,238,11.0,73752.3,2.29,1.75,1.83,0,*74
1493714433.73,239,11.0,73754.3,2.27,1.89,1.79,0,*7D
1493714434.96,240,11.0,73760.0,2.29,1.47,1.55,0,*71
1493714436.15,241,10.94,73756.3,2.29,1.75,1.75,0,*73
1493714437.39,242,10.94,73756.5,2.29,1.85,1.97,0,*73
1493714438.63,243,10.94,73758.0,2.29,2.05,2.09,0,*7D
1493714439.87,244,10.94,73762.3,2.29,2.09,2.21,0,*7C
1493714441.08,245,10.94,73764.0,2.29,2.21,2.27,0,*71
1493714442.32,246,10.94,73766.3,2.29,2.05,2.09,0,*78
1493714443.56,247,10.94,73768.8,2.29,2.05,2.09,0,*79
1493714444.75,248,10.94,73764.5,2.33,1.83,1.83,0,*71
1493714445.99,249,10.94,73766.3,2.33,1.93,1.97,0,*74
1493714447.23,250,10.94,73770.8,2.33,2.09,2.17,0,*77
1493714448.45,251,10.94,73770.0,2.35,1.97,1.97,0,*7F
1493714449.67,252,10.88,73770.3,2.33,1.83,1.85,0,*7C
1493714450.88,253,10.88,73762.0,2.35,1.89,1.97,0,*72
1493714452.13,254,10.88,73756.3,2.33,1.85,1.85,0,*7C
1493714453.37,255,10.88,73758.0,2.33,1.93,2.05,0,*71
1493714454.61,256,10.88,73750.3,2.33,1.97,1.93,0,*7A
1493714455.85,257,10.88,73748.3,2.33,1.93,1.93,0,*7F
1493714457.07,258,10.88,73756.0,2.35,2.01,2.13,0,*75
1493714458.28,259,10.88,73758.8,2.35,2.21,2.21,0,*77
1493714459.49,260,10.88,73754.0,2.35,1.89,1.97,0,*72
1493714460.73,261,10.88,73748.8,2.33,1.59,1.63,0,*73
1493714461.89,262,10.88,73750.8,2.35,1.79,1.75,0,*73
1493714463.13,263,10.88,73754.0,2.33,1.47,1.47,0,*78
1493714464.32,264,10.88,73750.0,2.35,1.37,1.41,0,*78
1493714465.57,265,10.88,73754.0,2.33,1.33,1.25,0,*79
1493714466.81,266,10.88,73752.3,2.33,1.25,1.25,0,*7D
1493714468.06,267,10.88,73748.8,2.33,1.43,1.37,0,*7F
1493714469.31,268,10.88,73754.3,2.33,1.13,1.13,0,*73
1493714470.54,269,10.88,73744.3,2.29,1.43,1.43,0,*79
1493714471.77,270,10.88,73730.5,2.29,1.43,1.43,0,*71
1493714472.96,271,10.88,73740.3,2.29,1.83,1.83,0,*70
1493714474.15,272,10.88,73742.0,2.29,1.83,1.83,0,*73
1493714475.37,273,10.88,73736.0,2.29,1.85,1.83,0,*74
1493714476.61,274,10.88,73746.5,2.29,1.63,1.63,0,*75
1493714477.85,275,10.88,73742.0,2.29,1.25,1.33,0,*73
1493714479.04,276,10.88,73740.8,2.27,1.29,1.41,0,*77
1493714480.26,277,10.88,73748.3,2.27,1.51,1.43,0,*7B
1493714481.47,278,10.88,73752.0,2.27,1.51,1.43,0,*74
1493714482.69,279,10.88,73752.8,2.27,1.29,1.29,0,*76
1493714483.93,280,10.88,73748.5,2.29,1.43,1.55,0,*79
1493714485.14,281,10.88,73750.3,2.27,1.43,1.51,0,*72
1493714486.4,282,10.88,73732.0,2.25,1.29,1.29,0,*70
1493714487.58,283,10.88,73728.3,2.25,1.05,0.97,0,*4B
1493714488.77,284,10.88,73726.3,2.25,0.97,0.97,0,*76
1493714489.92,285,10.88,73724.3,2.23,1.41,1.41,0,*71
1493714491.16,286,10.88,73718.3,2.25,1.59,1.59,0,*74
1493714492.4,287,10.81,73716.5,2.25,1.93,1.89,0,*7E
1493714493.56,288,10.81,73720.0,2.23,1.75,1.75,0,*7C
1493714494.79,289,10.81,73724.0,2.25,1.71,1.79,0,*73
1493714495.98,290,10.81,73730.0,2.25,1.83,1.83,0,*73
1493714497.22,291,10.81,73730.5,2.25,1.93,2.01,0,*7A
1493714498.46,292,10.81,73726.3,2.25,1.89,1.93,0,*7A
1493714499.7,293,10.81,73732.8,2.25,1.93,1.93,0,*70
1493714500.88,294,10.81,73734.5,2.27,1.83,1.89,0,*7F
1493714502.1,295,10.81,73730.5,2.27,1.93,1.89,0,*7F
1493714503.32,296,10.81,73738.8,2.27,2.05,2.13,0,*70
1493714504.52,297,10.81,73742.5,2.27,1.85,1.79,0,*75
1493714505.76,298,10.81,73742.3,2.29,1.85,1.85,0,*77
1493714506.96,299,10.81,73740.8,2.29,1.75,1.83,0,*7F
1493714508.17,300,10.81,73740.8,2.29,1.71,1.75,0,*73
1493714509.39,301,10.81,73746.0,2.27,1.55,1.59,0,*74
1493714510.59,302,10.81,73740.8,2.27,1.71,1.83,0,*76
1493714511.83,303,10.81,73742.5,2.29,1.85,1.85,0,*74
1493714513.06,304,10.81,73750.5,2.27,2.17,2.17,0,*7D
1493714514.28,305,10.81,73750.5,2.27,2.01,2.01,0,*7C
1493714515.52,306,10.81,73752.0,2.29,1.63,1.71,0,*72
1493714516.74,307,10.81,73744.0,2.27,1.55,1.59,0,*72
1493714517.93,308,10.81,73742.5,2.29,1.75,1.83,0,*76
1493714519.14,309,10.81,73746.8,2.27,1.59,1.67,0,*7D
1493714520.38,310,10.75,73752.3,2.29,1.55,1.47,0,*75
1493714521.62,311,10.81,73746.0,2.29,1.47,1.37,0,*70
1493714522.85,312,10.81,73748.0,2.27,1.17,1.09,0,*75
1493714524.07,313,10.75,73744.8,2.27,1.17,1.09,0,*74
1493714525.29,314,10.81,73750.3,2.27,1.51,1.55,0,*78
1493714526.52,315,10.81,73742.5,2.25,1.59,1.59,0,*7F
1493714527.72,316,10.81,73740.5,2.25,1.79,1.83,0,*79
1493714528.96,317,10.75,73740.0,2.25,1.67,1.67,0,*7D
1493714530.17,318,10.75,73744.5,2.25,1.41,1.51,0,*73
1493714531.42,319,10.75,73744.0,2.25,1.17,1.21,0,*76
1493714532.67,320,10.75,73748.5,2.25,1.55,1.67,0,*78
1493714533.87,321,10.75,73746.3,2.25,1.79,1.79,0,*78
1493714535.11,322,10.75,73742.8,2.25,1.51,1.51,0,*7B
1493714536.35,323,10.81,73752.5,2.25,1.59,1.55,0,*76
1493714537.6,324,10.75,73754.3,2.25,1.33,1.21,0,*7E
1493714538.78,325,10.75,73744.8,2.23,1.41,1.47,0,*7C
1493714540.02,326,10.75,73746.0,2.25,1.51,1.51,0,*7F
1493714541.24,327,10.75,73746.3,2.23,1.55,1.55,0,*78
1493714542.48,328,10.75,73748.3,2.25,1.55,1.43,0,*76
1493714543.74,329,10.75,73756.3,2.25,1.33,1.37,0,*74
1493714544.96,330,10.75,73760.5,2.23,1.37,1.37,0,*7E
1493714546.17,331,10.75,73754.8,2.23,1.47,1.47,0,*7F
1493714547.39,332,10.75,73758.5,2.23,1.67,1.67,0,*7C
1493714548.6,333,10.75,73756.5,2.23,1.51,1.51,0,*7D
1493714549.81,334,10.75,73758.3,2.23,1.51,1.51,0,*7A
1493714551.06,335,10.75,73754.3,2.25,1.55,1.67,0,*7C
1493714552.27,336,10.75,73752.5,2.23,1.51,1.37,0,*78
1493714553.49,337,10.75,73758.8,2.23,1.25,1.25,0,*79
1493714554.71,338,10.75,73764.5,2.25,1.33,1.41,0,*75
1493714555.95,339,10.75,73756.5,2.25,1.43,1.37,0,*72
1493714557.18,340,10.75,73766.8,2.25,1.59,1.59,0,*7F
1493714558.38,341,10.75,73754.5,2.23,1.67,1.79,0,*77
1493714559.55,342,10.75,73750.5,2.23,1.79,1.79,0,*7B
1493714560.71,343,10.75,73744.8,2.23,1.75,1.79,0,*76
1493714561.92,344,10.75,73746.5,2.23,1.89,1.97,0,*72
1493714563.16,345,10.75,73742.0,2.25,1.89,1.89,0,*7A
1493714564.37,346,10.75,73742.5,2.23,1.89,1.85,0,*73
1493714565.61,347,10.75,73740.5,2.25,2.05,2.05,0,*78
1493714566.86,348,10.75,73742.8,2.25,2.05,2.01,0,*73
1493714568.1,349,10.75,73738.5,2.25,1.93,2.01,0,*7E
1493714569.34,350,10.75,73732.0,2.25,1.67,1.67,0,*7E
1493714570.58,351,10.81,73738.3,2.25,1.67,1.67,0,*7F
1493714571.81,352,10.81,73734.3,2.25,1.67,1.67,0,*7C
1493714573.06,353,10.75,73736.3,2.25,1.55,1.55,0,*7D
1493714574.27,354,10.81,73726.5,2.23,1.51,1.63,0,*7D
1493714575.48,355,10.81,73728.8,2.23,1.51,1.51,0,*7D
1493714576.73,356,10.81,73734.0,2.25,1.55,1.55,0,*78
1493714577.94,357,10.81,73722.0,2.23,1.51,1.51,0,*7F
1493714579.16,358,10.81,73720.3,2.23,1.55,1.55,0,*70
1493714580.38,359,10.75,73724.0,2.23,1.63,1.67,0,*75
1493714581.57,360,10.75,73724.3,2.25,1.79,1.79,0,*7D
1493714582.78,361,10.75,73724.0,2.23,1.51,1.51,0,*7A
1493714584.03,362,10.75,73718.3,2.25,1.55,1.51,0,*7B
1493714585.28,363,10.81,73712.5,2.25,1.55,1.55,0,*7E
1493714586.51,364,10.75,73716.8,2.25,1.43,1.43,0,*79
1493714587.76,365,10.75,73720.0,2.25,1.29,1.17,0,*75
1493714588.98,366,10.75,73720.3,2.23,1.25,1.37,0,*7E
1493714590.18,367,10.75,73728.0,2.21,1.75,1.79,0,*72
1493714591.43,368,10.75,73726.8,2.21,1.55,1.55,0,*71
1493714592.67,369,10.75,73720.8,2.21,1.63,1.55,0,*75
1493714593.87,370,10.75,73730.8,2.21,1.75,1.75,0,*78
1493714595.08,371,10.75,73726.5,2.23,1.67,1.67,0,*7B
1493714596.3,372,10.75,73726.3,2.23,1.51,1.51,0,*78
1493714597.5,373,10.75,73726.0,2.23,0.95,0.95,0,*79
1493714598.72,374,10.75,73728.3,2.23,1.29,1.37,0,*71
1493714599.96,375,10.75,73728.5,2.21,1.47,1.47,0,*7D
1493714601.18,376,10.75,73728.3,2.23,1.55,1.55,0,*7C
1493714602.39,377,10.75,73728.3,2.23,1.51,1.51,0,*7D
1493714603.6,378,10.75,73722.5,2.19,1.47,1.43,0,*7F
1493714604.84,379,10.75,73724.5,2.21,0.79,0.75,0,*7D
1493714606.05,380,10.75,73724.0,2.19,0.59,0.51,0,*74
1493714607.25,381,10.75,73724.5,2.19,0.79,0.79,0,*7D
1493714608.49,382,10.75,73722.8,2.17,0.63,0.59,0,*79
1493714609.7,383,10.75,73726.0,2.15,0.55,0.55,0,*73
1493714610.91,384,10.75,73724.3,2.15,0.83,0.75,0,*7D
1493714612.12,385,10.75,73726.0,2.15,0.87,0.83,0,*71
1493714613.32,386,10.75,73728.0,2.15,0.95,0.87,0,*75
1493714614.56,387,10.75,73732.5,2.13,0.79,0.59,0,*73
1493714615.81,388,10.75,73738.5,2.13,0.91,0.91,0,*7E
1493714617.04,389,10.75,73728.0,2.13,0.71,0.67,0,*78
1493714618.27,390,10.69,73726.8,2.13,0.79,0.71,0,*7F
1493714619.48,391,10.69,73728.0,2.11,0.67,0.55,0,*75
1493714620.69,392,10.69,73724.3,2.11,0.71,0.71,0,*77
1493714621.89,393,10.69,73724.5,2.11,0.71,0.67,0,*71
1493714623.09,394,10.69,73726.3,2.11,0.67,0.67,0,*71
1493714624.3,395,10.69,73730.3,2.11,0.95,0.91,0,*74
1493714625.52,396,10.69,73730.0,2.07,1.09,1.13,0,*7F
1493714626.68,397,10.69,73732.8,2.07,0.97,1.01,0,*4B
1493714627.91,398,10.69,73732.8,2.07,1.21,1.21,0,*7A
1493714629.09,399,10.69,73734.8,2.07,0.91,0.97,0,*7D
1493714630.3,400,10.69,73728.3,2.07,1.25,1.25,0,*7C
1493714631.53,401,10.69,73732.0,2.07,1.33,1.33,0,*7D
1493714632.72,402,10.69,73732.5,2.07,1.01,1.09,0,*76
1493714633.91,403,10.69,73742.3,2.07,0.67,0.75,0,*7C
1493714635.11,404,10.63,73738.8,2.07,0.75,0.79,0,*74
1493714636.32,405,10.63,73746.3,2.07,0.55,0.51,0,*7D
1493714637.5,406,10.63,73748.8,2.07,0.87,0.97,0,*7B
1493714638.68,407,10.69,73758.3,2.07,0.87,1.01,0,*44
1493714639.94,408,10.63,73752.8,2.05,1.29,1.33,0,*7D
1493714641.15,409,10.63,73762.5,2.07,1.71,1.71,0,*75
1493714642.31,410,10.63,73756.0,2.07,1.75,1.83,0,*74
1493714643.54,411,10.63,73748.5,2.07,1.37,1.37,0,*7C
1493714644.73,412,10.63,73756.3,2.07,1.01,0.87,0,*40
1493714645.93,413,10.63,73760.0,2.07,0.79,0.75,0,*72
1493714647.16,414,10.63,73760.0,2.07,1.13,1.13,0,*79
1493714648.38,415,10.63,73756.8,2.07,1.21,1.25,0,*7C
1493714649.59,416,10.63,73768.0,2.07,1.25,1.25,0,*7B
1493714650.8,417,10.63,73768.3,2.07,1.51,1.63,0,*7B
1493714652.01,418,10.63,73774.3,2.07,1.59,1.63,0,*7C
1493714653.17,419,10.63,73768.3,2.07,1.75,1.83,0,*7D
1493714654.37,420,10.63,73774.5,2.11,1.79,1.85,0,*7A
1493714655.61,421,10.63,73770.8,2.13,1.43,1.51,0,*79
1493714656.8,422,10.63,73766.0,2.11,1.75,1.67,0,*78
1493714657.98,423,10.63,73776.8,2.11,1.79,1.79,0,*7A
1493714659.19,424,10.63,73774.8,2.11,1.85,1.89,0,*71
1493714660.44,425,10.63,73766.0,2.13,1.55,1.55,0,*7E
1493714661.68,426,10.56,73774.8,2.13,1.63,1.63,0,*7D
1493714662.88,427,10.63,73772.8,2.13,1.79,1.75,0,*70
1493714664.12,428,10.63,73774.5,2.13,2.01,2.01,0,*73
1493714665.34,429,10.63,73768.0,2.15,2.13,2.13,0,*74
1493714666.56,430,10.63,73774.5,2.15,2.05,2.13,0,*7B
1493714667.79,431,10.63,73772.3,2.17,1.89,1.89,0,*7F
1493714668.98,432,10.63,73770.0,2.15,1.71,1.79,0,*76
1493714670.17,433,10.63,73772.5,2.15,1.83,1.89,0,*75
1493714671.4,434,10.56,73786.5,2.17,1.93,1.93,0,*7A
1493714672.6,435,10.63,73782.3,2.15,1.59,1.79,0,*7B
1493714673.83,436,10.63,73770.3,2.17,1.67,1.59,0,*75
1493714675.02,437,10.56,73772.5,2.19,1.71,1.75,0,*73
1493714676.25,438,10.56,73782.8,2.19,1.85,1.85,0,*78
1493714677.48,439,10.56,73778.0,2.17,1.59,1.67,0,*7A
1493714678.72,440,10.63,73786.3,2.17,1.43,1.43,0,*79
1493714679.95,441,10.63,73790.0,2.17,1.59,1.59,0,*78
1493714681.2,442,10.56,73774.0,2.17,1.55,1.67,0,*7A
1493714682.44,443,10.56,73760.8,2.17,1.67,1.67,0,*7A
1493714683.64,444,10.63,73758.8,2.19,1.59,1.59,0,*73
1493714684.87,445,10.56,73752.5,2.19,1.25,1.21,0,*76
1493714686.1,446,10.56,73752.8,2.17,0.55,0.59,0,*73
1493714687.26,447,10.63,73774.0,2.15,0.97,0.97,0,*7C
1493714688.48,448,10.63,73768.8,2.15,1.55,1.55,0,*73
1493714689.72,449,10.63,73756.0,2.17,1.43,1.43,0,*70
1493714690.9,450,10.63,73756.0,2.15,1.41,1.43,0,*78
1493714692.11,451,10.63,73758.5,2.15,1.47,1.55,0,*78
1493714693.33,452,10.63,73762.0,2.15,1.55,1.55,0,*78
1493714694.55,453,10.63,73754.5,2.15,1.29,1.17,0,*74
1493714695.79,454,10.63,73746.5,2.17,1.47,1.47,0,*7C
1493714697.0,455,10.69,73742.5,2.15,1.43,1.47,0,*7B
1493714698.16,456,10.63,73738.0,2.15,1.41,1.41,0,*7C